Location: North Evanston
(42.0634°N, 87.6976°W)
Time: 14:47:12
(UTC+00:00)

Vanguard 2 Rocket - Pass Details

Date: 16 May 2026
Orbit: 553 x 3286 km, 32.9° (Epoch: 6 June)

Event Time Altitude Azimuth Distance (km) Brightness Sun altitude
Rises 16:25:59 0° 235° (SW) 4,982 10.6 61.4°
Reaches altitude 10° 16:28:52 10° 231° (SW) 4,303 10.5 61.8°
Maximum altitude 16:41:05 53° 159° (SSE) 3,114 11.7 63.2°
Drops below altitude 10° 16:59:17 10° 91° (E) 6,205 11.4 65.0°
Sets 17:04:26 0° 87° (E) 7,262 11.6 65.4°
